[[{"header":{"parameterUnit":"m.s-1","parameterCategory":1,"la1":30.2991,"la2":30.254,"lo1":-89.0895,"lo2":-89.0444,"dy":0.0017,"dx":0.0017,"nx":28,"ny":28,"refTime":"2024-11-29T03:00:00:Z","depth":0,"parameterNumber":2,"parameterNumberName":"U-component_of_WINDS"},"data":[0,0,0,0,0,0,0,0,0,0,0,0,0,0,0,0,0,0,0,0,0,0,0,0,0,0,0,0,0,0,0,0,0,0,0,0,0,0,0,0,0,0,0,0,0,0,0,0,0,0,0,0,0,0,0,0,0,0,-1.6418,-1.6418,0,-1.6442,-1.6443,-1.6443,-1.6392,-1.639,-1.6389,-1.6387,-1.6414,-1.6416,-1.6418,0,0,0,0,0,0,0,0,0,0,0,0,0,-1.6326,-1.6328,-1.6418,-1.6418,-1.6418,-1.6442,-1.6443,-1.6443,-1.6392,-1.639,-1.6388,-1.6386,-1.6413,-1.6415,-1.6418,0,0,0,0,0,0,0,0,0,0,0,0,0,-1.636,-1.6329,-1.6418,-1.6396,-1.6394,-1.6442,-1.6443,-1.6443,-1.6393,-1.639,-1.6388,-1.6385,-1.6412,-1.6415,-1.6419,-1.649,0,0,-1.6429,-1.643,0,0,0,0,0,0,0,0,-1.6358,-1.6364,-1.6399,-1.6397,-1.6396,-1.6411,-1.642,-1.6459,-1.6393,-1.6393,-1.6387,-1.6384,-1.6415,-1.6418,-1.6428,-1.6491,-1.6492,-1.6429,-1.6431,-1.6433,-1.6434,0,0,0,0,0,0,0,-1.6356,-1.6362,-1.6428,-1.6399,-1.6397,-1.6385,-1.6387,-1.6427,-1.6418,-1.6393,-1.6389,-1.6393,-1.6414,-1.6425,-1.6428,-1.6492,-1.6429,-1.6432,-1.6434,-1.6436,-1.6613,-1.6616,0,0,0,0,0,0,-1.6356,-1.6361,-1.6427,-1.6428,-1.637,-1.6388,-1.6391,-1.6409,-1.6417,-1.6416,-1.6395,-1.639,-1.642,-1.6424,-1.6429,-1.6512,-1.6433,-1.6436,-1.6438,-1.6611,-1.6614,-1.6617,0,0,0,0,0,0,-1.6355,-1.6363,-1.6426,-1.6393,-1.64,-1.6393,-1.6414,-1.6411,-1.6422,-1.6419,-1.6417,-1.6408,-1.6419,-1.6424,-1.6475,-1.6513,-1.6437,-1.644,-1.6607,-1.6612,-1.6615,-1.668,0,0,0,0,0,0,-1.6352,-1.6362,-1.639,-1.6394,-1.6402,-1.6471,-1.6416,-1.6413,-1.6428,-1.6422,-1.6431,-1.643,-1.6417,-1.647,-1.6478,-1.6516,-1.6443,-1.6604,-1.6609,-1.6614,-1.6675,-1.6686,-1.6696,0,0,0,0,0,-1.6349,-1.6407,-1.6391,-1.64,-1.6436,-1.6474,-1.6478,-1.6462,-1.6431,-1.6458,-1.6456,-1.643,-1.6507,-1.6475,-1.6484,-1.6524,-1.6602,-1.6608,-1.6614,-1.667,-1.6684,-1.6695,0,0,0,0,0,0,-1.6408,-1.6408,-1.639,-1.6451,-1.6463,-1.6465,-1.6499,-1.6477,-1.6498,-1.6492,-1.6471,-1.6473,-1.6527,-1.653,-1.6495,-1.6592,-1.6549,-1.6557,-1.6589,-1.6602,-1.6612,-1.6611,-1.6446,0,0,0,0,0,-1.6428,-1.6459,-1.6456,-1.6511,-1.6517,-1.6507,-1.6523,-1.6509,-1.652,-1.6525,-1.6526,-1.6538,-1.6565,-1.6583,-1.6608,-1.6674,-1.6675,-1.6705,-1.6716,-1.6725,-1.6732,-1.6767,-1.678,-1.6637,-1.6637,-1.6636,0,0,-1.6471,-1.6474,-1.6495,-1.6523,-1.653,-1.6562,-1.6512,-1.6548,-1.6571,-1.6531,-1.6578,-1.6579,-1.6591,-1.6649,-1.6675,-1.6654,-1.6772,-1.6732,-1.6739,-1.6742,-1.6774,-1.6788,-1.68,-1.6641,-1.664,-1.6639,0,0,-1.6564,-1.6569,-1.6615,-1.6623,-1.6634,-1.6626,-1.6637,-1.6642,-1.6641,-1.6688,-1.6658,-1.6685,-1.6732,-1.6741,-1.6752,-1.6847,-1.6823,-1.6855,-1.6911,-1.6944,-1.6956,-1.6966,-1.7,-1.7012,-1.6863,-1.6863,-1.6863,0,-1.6615,-1.6662,-1.6641,-1.6679,-1.6692,-1.6656,-1.6702,-1.671,-1.6729,-1.6739,-1.6714,-1.6771,-1.6776,-1.6836,-1.6859,-1.6869,-1.6881,-1.6855,-1.6956,-1.6965,-1.6974,-1.7006,-1.7019,-1.6867,-1.6866,-1.6866,-1.6865,0,-1.6724,-1.6756,-1.6792,-1.681,-1.6827,-1.6869,-1.6855,-1.6874,-1.6858,-1.6853,-1.6901,-1.6906,-1.693,-1.6943,-1.6928,-1.7001,-1.6987,-1.6959,-1.6915,-1.6992,-1.7022,-1.7034,-1.6872,-1.6871,-1.687,-1.6869,0,0,-1.6858,-1.6862,-1.6876,-1.6883,-1.6891,-1.6916,-1.6956,-1.6979,-1.6996,-1.7009,-1.7042,-1.7081,-1.7055,-1.7068,-1.7053,-1.7083,-1.7157,-1.7052,-1.7051,-1.7071,-1.7237,-1.7258,-1.7273,-1.7141,-1.7143,-1.7145,-1.7236,0,-1.695,-1.7018,-1.7,-1.7067,-1.7097,-1.7061,-1.7095,-1.7104,-1.71,-1.7124,-1.7119,-1.7148,-1.7111,-1.7118,-1.7146,-1.7142,-1.719,-1.7135,-1.7171,-1.7173,-1.7171,-1.7288,-1.7311,-1.7397,-1.7247,-1.7249,-1.7251,0,-1.7068,-1.7085,-1.7155,-1.7157,-1.7169,-1.72,-1.7219,-1.7243,-1.7251,-1.7246,-1.7259,-1.7238,-1.7277,-1.7231,-1.7284,-1.7247,-1.726,-1.7261,-1.7263,-1.7267,-1.7217,-1.7296,-1.7424,-1.7437,-1.7269,-1.7267,-1.7266,0,-1.7159,-1.7199,-1.7246,-1.7253,-1.7257,-1.7279,-1.7282,-1.7288,-1.7303,-1.7319,-1.7328,-1.7349,-1.7361,-1.7378,-1.7363,-1.7331,-1.7418,-1.7371,-1.7415,-1.7415,-1.7436,-1.7435,-1.7569,-1.7443,-1.7443,-1.7442,-1.7442,0,-1.7264,-1.7309,-1.7286,-1.7316,-1.7364,-1.7342,-1.7391,-1.7389,-1.7395,-1.7423,-1.7393,-1.742,-1.7398,-1.7423,-1.7411,-1.7456,-1.7462,-1.7459,-1.7455,-1.7462,-1.7462,-1.7471,-1.7465,-1.7446,-1.7445,-1.7444,-1.7444,0,-1.7375,-1.7362,-1.7411,-1.7409,-1.741,-1.7446,-1.7444,-1.7471,-1.7463,-1.7499,-1.7506,-1.7495,-1.7523,-1.7509,-1.7538,-1.753,-1.7588,-1.7576,-1.7585,-1.7583,-1.7627,-1.7623,-1.7772,-1.779,-1.7652,-1.7653,-1.7654,0,-1.7444,-1.7477,-1.7479,-1.7495,-1.7499,-1.7526,-1.754,-1.7519,-1.7535,-1.7547,-1.7572,-1.7597,-1.7616,-1.7661,-1.7656,-1.7677,-1.7666,-1.7716,-1.7669,-1.7674,-1.7667,-1.7666,-1.7669,-1.7727,-1.7728,-1.7729,-1.7731,0,-1.7568,-1.7559,-1.7581,-1.76,-1.7617,-1.7631,-1.7643,-1.7658,-1.7637,-1.7656,-1.7684,-1.7698,-1.7727,-1.7752,-1.777,-1.7772,-1.7748,-1.7745,-1.7756,-1.7764,-1.7768,-1.7767,-1.7612,-1.7742,-1.7741,-1.774,-1.774,-1.7739,-1.766,-1.7688,-1.7693,-1.7717,-1.7723,-1.7734,-1.7759,-1.7754,-1.7776,-1.7797,-1.7783,-1.7815,-1.7822,-1.7844,-1.7849,-1.7874,-1.7854,-1.787,-1.7874,-1.7879,-1.7885,-1.7763,-1.7877,-1.7876,-1.7876,-1.7876,-1.7876,0,-1.7783,-1.7784,-1.7807,-1.7823,-1.7842,-1.7816,-1.7827,-1.7845,-1.7873,-1.7881,-1.7899,-1.793,-1.7953,-1.7949,-1.797,-1.7991,-1.798,-1.7997,-1.7996,-1.7997,-1.7901,-1.789,-1.8005,-1.8005,-1.8005,-1.8005,-1.8005,-1.8005,-1.7849,-1.7894,-1.7886,-1.7933,-1.7933,-1.7964,-1.7972,-1.7982,-1.7988,-1.8023,-1.8042,-1.8039,-1.8041,-1.8062,-1.8082,-1.808,-1.8089,-1.8111,-1.8105,-1.8016,-1.8003,-1.7991,-1.798,-1.8113,-1.8113,-1.8198,-1.8198,-1.8199]},{"header":{"parameterUnit":"m.s-1","parameterCategory":1,"la1":30.2991,"la2":30.254,"lo1":-89.0895,"lo2":-89.0444,"dy":0.0017,"dx":0.0017,"nx":28,"ny":28,"refTime":"2024-11-29T03:00:00:Z","depth":0,"parameterNumber":3,"parameterNumberName":"V-component_of_WINDS"},"data":[0,0,0,0,0,0,0,0,0,0,0,0,0,0,0,0,0,0,0,0,0,0,0,0,0,0,0,0,0,0,0,0,0,0,0,0,0,0,0,0,0,0,0,0,0,0,0,0,0,0,0,0,0,0,0,0,0,0,-7.6631,-7.6633,0,-7.6763,-7.6764,-7.6766,-7.6672,-7.6668,-7.6664,-7.666,-7.6789,-7.6796,-7.6803,0,0,0,0,0,0,0,0,0,0,0,0,0,-7.6293,-7.63,-7.6631,-7.6633,-7.6634,-7.6763,-7.6764,-7.6766,-7.6673,-7.6668,-7.6663,-7.6658,-7.6787,-7.6795,-7.6804,0,0,0,0,0,0,0,0,0,0,0,0,0,-7.6434,-7.6302,-7.6631,-7.6604,-7.6602,-7.6762,-7.6764,-7.6767,-7.6674,-7.6668,-7.6662,-7.6656,-7.6784,-7.6794,-7.6805,-7.6997,0,0,-7.6839,-7.6843,0,0,0,0,0,0,0,0,-7.6426,-7.6446,-7.6606,-7.6606,-7.6605,-7.6695,-7.6692,-7.6844,-7.6676,-7.6647,-7.666,-7.6653,-7.6762,-7.6775,-7.6813,-7.7003,-7.7009,-7.684,-7.6846,-7.6851,-7.6854,0,0,0,0,0,0,0,-7.6416,-7.644,-7.6683,-7.6608,-7.6608,-7.6583,-7.6596,-7.6721,-7.6738,-7.6649,-7.6642,-7.6659,-7.6761,-7.6802,-7.6815,-7.7011,-7.6839,-7.6849,-7.6856,-7.686,-7.7364,-7.737,0,0,0,0,0,0,-7.641,-7.6432,-7.6679,-7.6687,-7.6498,-7.6594,-7.6608,-7.6672,-7.6736,-7.674,-7.6665,-7.6655,-7.6787,-7.6802,-7.6819,-7.7048,-7.6851,-7.6861,-7.6867,-7.7357,-7.7365,-7.7373,0,0,0,0,0,0,-7.6403,-7.6433,-7.6673,-7.6558,-7.6587,-7.6606,-7.6678,-7.6678,-7.672,-7.6748,-7.675,-7.6705,-7.6783,-7.6804,-7.6954,-7.7051,-7.6866,-7.6876,-7.7349,-7.736,-7.7369,-7.7508,0,0,0,0,0,0,-7.6393,-7.6431,-7.6505,-7.6561,-7.6593,-7.6808,-7.6685,-7.6685,-7.674,-7.6728,-7.6786,-7.679,-7.6779,-7.6938,-7.6965,-7.7063,-7.6885,-7.734,-7.7354,-7.7366,-7.7494,-7.7521,-7.7544,0,0,0,0,0,-7.6382,-7.6538,-7.651,-7.654,-7.6688,-7.6814,-7.6833,-7.6819,-7.6748,-7.6822,-7.684,-7.6788,-7.7036,-7.6954,-7.6983,-7.7086,-7.7334,-7.735,-7.7365,-7.7483,-7.7516,-7.7544,0,0,0,0,0,0,-7.6492,-7.6545,-7.6514,-7.6693,-7.675,-7.6798,-7.6892,-7.6854,-7.6931,-7.6917,-7.6895,-7.6909,-7.7066,-7.7091,-7.6999,-7.7275,-7.7174,-7.7196,-7.7253,-7.7285,-7.7309,-7.73,-7.6894,0,0,0,0,0,-7.6537,-7.6638,-7.6677,-7.6831,-7.6862,-7.6872,-7.6927,-7.6912,-7.6969,-7.6992,-7.7021,-7.7077,-7.7167,-7.7227,-7.7312,-7.7497,-7.7508,-7.7582,-7.7607,-7.7627,-7.7647,-7.7746,-7.7779,-7.7423,-7.7423,-7.7423,0,0,-7.6632,-7.6673,-7.6737,-7.6855,-7.6897,-7.7,-7.6893,-7.7006,-7.7081,-7.7008,-7.7152,-7.7176,-7.7236,-7.7405,-7.748,-7.743,-7.7747,-7.7647,-7.7663,-7.7671,-7.7765,-7.7799,-7.7829,-7.7434,-7.7432,-7.743,0,0,-7.6856,-7.6898,-7.7031,-7.7076,-7.7142,-7.7148,-7.718,-7.7234,-7.7247,-7.7392,-7.7339,-7.7427,-7.7583,-7.7629,-7.7672,-7.7914,-7.7868,-7.7942,-7.8072,-7.8169,-7.8197,-7.8222,-7.8308,-7.8339,-7.7961,-7.7961,-7.7961,0,-7.6964,-7.7119,-7.7103,-7.7221,-7.7274,-7.7214,-7.7347,-7.7391,-7.7481,-7.7518,-7.7461,-7.7656,-7.7692,-7.7871,-7.793,-7.7967,-7.8001,-7.7935,-7.8195,-7.8219,-7.8242,-7.8324,-7.8356,-7.797,-7.7969,-7.7968,-7.7967,0,-7.7249,-7.7357,-7.7456,-7.7547,-7.761,-7.7735,-7.7736,-7.7802,-7.7781,-7.7792,-7.7939,-7.7981,-7.8073,-7.8114,-7.8094,-7.829,-7.8257,-7.8198,-7.8095,-7.8285,-7.8361,-7.8392,-7.7982,-7.7979,-7.7976,-7.7974,0,0,-7.7547,-7.7628,-7.7664,-7.7705,-7.7773,-7.7855,-7.7976,-7.8068,-7.8125,-7.8188,-7.8289,-7.8422,-7.8369,-7.8418,-7.8402,-7.8487,-7.8676,-7.8418,-7.8419,-7.8464,-7.8893,-7.8937,-7.8974,-7.8646,-7.8651,-7.8656,-7.8888,0,-7.7775,-7.799,-7.7979,-7.8178,-7.8277,-7.8222,-7.8327,-7.8379,-7.8393,-7.8477,-7.849,-7.8585,-7.8507,-7.8537,-7.8618,-7.8636,-7.8761,-7.8618,-7.8737,-7.8742,-7.8725,-7.9014,-7.9061,-7.9278,-7.8917,-7.8922,-7.8926,0,-7.8071,-7.8147,-7.8357,-7.8411,-7.8452,-7.8547,-7.863,-7.8712,-7.8769,-7.8773,-7.8829,-7.8799,-7.8919,-7.8814,-7.8978,-7.8882,-7.8929,-7.8945,-7.8953,-7.8963,-7.8846,-7.9032,-7.9346,-7.9379,-7.8973,-7.8969,-7.8966,0,-7.8267,-7.8422,-7.8567,-7.8603,-7.867,-7.8738,-7.8768,-7.882,-7.8875,-7.8947,-7.8983,-7.9067,-7.9113,-7.9178,-7.9171,-7.9095,-7.9339,-7.9233,-7.9344,-7.9344,-7.9398,-7.9395,-7.9724,-7.9429,-7.9428,-7.9427,-7.9427,0,-7.8523,-7.8654,-7.8657,-7.8747,-7.8891,-7.8876,-7.9019,-7.9041,-7.9087,-7.9179,-7.9134,-7.9221,-7.9206,-7.9292,-7.9287,-7.9424,-7.9445,-7.945,-7.9447,-7.9454,-7.9454,-7.9485,-7.947,-7.9436,-7.9434,-7.9432,-7.9431,0,-7.8768,-7.8775,-7.893,-7.898,-7.8996,-7.91,-7.9142,-7.9226,-7.9235,-7.9352,-7.9378,-7.9393,-7.9491,-7.9491,-7.9602,-7.9599,-7.9767,-7.9746,-7.9749,-7.9745,-7.9856,-7.9846,-8.0218,-8.0265,-7.9938,-7.9942,-7.9944,0,-7.8931,-7.9031,-7.9092,-7.9152,-7.9187,-7.9283,-7.934,-7.9328,-7.9389,-7.9462,-7.9537,-7.9632,-7.9708,-7.9868,-7.9887,-7.9972,-7.9953,-8.0077,-7.9965,-7.997,-7.9955,-7.9949,-7.9959,-8.01,-8.0103,-8.0106,-8.0109,0,-7.9221,-7.9219,-7.9305,-7.9392,-7.9462,-7.953,-7.9592,-7.9642,-7.9637,-7.9707,-7.9809,-7.9868,-7.9983,-8.0077,-8.0159,-8.0187,-8.0148,-8.0144,-8.0174,-8.0183,-8.018,-8.0183,-7.9809,-8.0135,-8.0133,-8.0131,-8.0129,-8.0128,-7.9429,-7.9516,-7.9573,-7.9669,-7.9715,-7.9774,-7.9856,-7.9876,-7.9961,-8.0056,-8.0042,-8.0156,-8.0209,-8.0315,-8.0351,-8.0438,-8.0394,-8.0438,-8.0449,-8.046,-8.0472,-8.0166,-8.0452,-8.0452,-8.0451,-8.045,-8.045,0,-7.9717,-7.9751,-7.984,-7.9929,-8.0005,-7.9962,-8.0028,-8.0094,-8.0195,-8.0249,-8.0324,-8.0441,-8.0532,-8.0558,-8.0646,-8.071,-8.0694,-8.0734,-8.0729,-8.0736,-8.0507,-8.0472,-8.0746,-8.0746,-8.0745,-8.0745,-8.0745,-8.0745,-7.9875,-8.0019,-8.0024,-8.0189,-8.0221,-8.0333,-8.0375,-8.0428,-8.0471,-8.0604,-8.0681,-8.0698,-8.0741,-8.0831,-8.0912,-8.0917,-8.0951,-8.0999,-8.0997,-8.0782,-8.0752,-8.0724,-8.0691,-8.1006,-8.1007,-8.1219,-8.1221,-8.1222]}]]